GW0953 Weather Reports


Display with metric or nautical units.
time (UTC)temp
F
wind
direction
speed
MPH
gust
MPH
rain 1hr
in
rain 24hr
in
rain mn
in
humidity
%
barometer
mb
20260505230441 76 341 2.0 3.0 0.00 0.00 0.00 35 1014.3
20260505225937 76 269 5.0 8.0 0.00 0.00 0.00 35 1014.3
20260505225435 76 272 4.0 6.0 0.00 0.00 0.00 34 1014.6
20260505224930 77 255 2.0 3.0 0.00 0.00 0.00 34 1014.7
20260505224427 77 285 7.0 8.0 0.00 0.00 0.00 34 1014.6
20260505223924 77 328 5.0 8.0 0.00 0.00 0.00 34 1014.5
20260505223421 77 30 1.0 2.0 0.00 0.00 0.00 34 1014.7
20260505222918 77 276 2.0 3.0 0.00 0.00 0.00 33 1014.5
20260505222414 77 339 3.0 3.0 0.00 0.00 0.00 33 1014.5
20260505221910 77 341 5.0 6.0 0.00 0.00 0.00 32 1014.6
20260505221408 77 284 4.0 6.0 0.00 0.00 0.00 32 1014.5
20260505220904 77 297 6.0 8.0 0.00 0.00 0.00 32 1014.6
20260505220401 77 321 3.0 3.0 0.00 0.00 0.00 31 1014.7
20260505215859 78 254 4.0 6.0 0.00 0.00 0.00 30 1014.7
20260505215357 78 319 2.0 2.0 0.00 0.00 0.00 30 1014.4
20260505214855 78 339 1.0 1.0 0.00 0.00 0.00 30 1014.6
20260505214352 78 292 2.0 3.0 0.00 0.00 0.00 29 1014.4
20260505213849 79 64 3.0 3.0 0.00 0.00 0.00 29 1014.3
20260505213347 79 11 1.0 1.0 0.00 0.00 0.00 29 1014.7
20260505212843 79 71 1.0 2.0 0.00 0.00 0.00 28 1014.3
20260505212340 79 327 4.0 8.0 0.00 0.00 0.00 27 1014.5
20260505211836 79 279 6.0 9.0 0.00 0.00 0.00 26 1014.6
20260505211334 79 291 4.0 8.0 0.00 0.00 0.00 26 1014.6
20260505210830 79 284 1.0 2.0 0.00 0.00 0.00 26 1014.6
20260505210327 80 336 1.0 2.0 0.00 0.00 0.00 26 1014.5
20260505205824 80 267 3.0 3.0 0.00 0.00 0.00 25 1014.6
20260505205322 81 278 2.0 3.0 0.00 0.00 0.00 25 1014.5
20260505204818 80 292 5.0 7.0 0.00 0.00 0.00 24 1014.8
20260505204317 80 272 4.0 6.0 0.00 0.00 0.00 23 1015.0
20260505203814 80 165 3.0 3.0 0.00 0.00 0.00 23 1014.7
20260505203310 80 324 1.0 1.0 0.00 0.00 0.00 25 1014.5
20260505202806 80 277 4.0 5.0 0.00 0.00 0.00 24 1014.4
20260505202306 81 105 4.0 5.0 0.00 0.00 0.00 26 1014.4
20260505201800 82 342 3.0 3.0 0.00 0.00 0.00 24 1014.4
20260505201257 82 325 1.0 1.0 0.00 0.00 0.00 23 1014.5
20260505200755 82 358 4.0 6.0 0.00 0.00 0.00 24 1014.8
20260505200252 82 313 10.0 13.0 0.00 0.00 0.00 24 1014.5
20260505195747 82 275 5.0 7.0 0.00 0.00 0.00 24 1014.5
20260505195245 83 305 1.0 1.0 0.00 0.00 0.00 23 1014.4
20260505194742 82 304 5.0 7.0 0.00 0.00 0.00 25 1014.4
20260505194238 82 253 1.0 1.0 0.00 0.00 0.00 25 1014.7
20260505193734 82 286 4.0 6.0 0.00 0.00 0.00 25 1014.7
20260505193232 82 246 5.0 6.0 0.00 0.00 0.00 24 1014.7
20260505192730 83 300 6.0 8.0 0.00 0.00 0.00 24 1014.5
20260505192228 82 225 5.0 7.0 0.00 0.00 0.00 24 1014.9
20260505191726 82 183 3.0 7.0 0.00 0.00 0.00 26 1014.6
20260505191224 81 287 2.0 3.0 0.00 0.00 0.00 26 1014.7
20260505190720 82 299 11.0 13.0 0.00 0.00 0.00 26 1014.6
20260505190219 82 251 5.0 6.0 0.00 0.00 0.00 26 1014.8
20260505185716 82 228 6.0 9.0 0.00 0.00 0.00 26 1015.0
20260505185213 82 132 4.0 6.0 0.00 0.00 0.00 27 1015.0
20260505184709 82 251 4.0 6.0 0.00 0.00 0.00 27 1014.7
20260505184207 82 325 9.0 13.0 0.00 0.00 0.00 25 1015.2
20260505183703 82 276 5.0 6.0 0.00 0.00 0.00 28 1015.2
20260505183201 84 305 3.0 3.0 0.00 0.00 0.00 29 1015.2
20260505182656 82 6 3.0 5.0 0.00 0.00 0.00 28 1015.2
20260505182154 81 274 3.0 5.0 0.00 0.00 0.00 30 1015.2
20260505181650 81 259 2.0 2.0 0.00 0.00 0.00 30 1015.3
20260505181148 81 329 3.0 6.0 0.00 0.00 0.00 30 1015.3
20260505180644 81 247 5.0 7.0 0.00 0.00 0.00 30 1015.4
20260505180141 81 271 1.0 1.0 0.00 0.00 0.00 31 1015.4
20260505175637 82 290 3.0 3.0 0.00 0.00 0.00 31 1015.6
20260505175133 80 271 2.0 2.0 0.00 0.00 0.00 33 1015.5
20260505174630 80 292 4.0 7.0 0.00 0.00 0.00 33 1015.7
20260505174126 78 86 1.0 2.0 0.00 0.00 0.00 34 1015.6
20260505173623 78 341 2.0 2.0 0.00 0.00 0.00 35 1015.9
20260505173120 79 219 3.0 3.0 0.00 0.00 0.00 34 1016.0
20260505172618 80 279 2.0 2.0 0.00 0.00 0.00 33 1015.8
20260505172114 80 274 4.0 5.0 0.00 0.00 0.00 33 1016.0
20260505171609 80 255 5.0 6.0 0.00 0.00 0.00 35 1016.0
20260505171106 80 273 3.0 5.0 0.00 0.00 0.00 34 1016.0
20260505170603 78 196 2.0 5.0 0.00 0.00 0.00 35 1016.0
20260505170059 77 308 4.0 6.0 0.00 0.00 0.00 36 1016.5
20260505165554 76 325 2.0 2.0 0.00 0.00 0.00 37 1016.4
20260505165051 76 5 3.0 3.0 0.00 0.00 0.00 38 1016.6
20260505164546 77 277 7.0 9.0 0.00 0.00 0.00 37 1016.4
20260505164044 77 346 5.0 8.0 0.00 0.00 0.00 37 1016.5
20260505163542 77 211 3.0 5.0 0.00 0.00 0.00 37 1016.6
20260505163039 77 250 3.0 3.0 0.00 0.00 0.00 37 1016.9
20260505162532 77 333 3.0 3.0 0.00 0.00 0.00 37 1016.8
20260505162029 76 323 1.0 2.0 0.00 0.00 0.00 38 1016.9
20260505161526 77 252 9.0 13.0 0.00 0.00 0.00 38 1017.1
20260505161023 77 1 4.0 5.0 0.00 0.00 0.00 39 1017.0
20260505160521 76 15 2.0 3.0 0.00 0.00 0.00 39 1017.2
20260505152957 76 182 2.0 2.0 0.00 0.00 0.00 40 1017.0
20260505152455 75 248 5.0 6.0 0.00 0.00 0.00 40 1017.3
20260505151950 75 336 1.0 2.0 0.00 0.00 0.00 40 1017.1
20260505151445 75 277 7.0 9.0 0.00 0.00 0.00 39 1017.0
20260505150943 76 242 3.0 6.0 0.00 0.00 0.00 38 1017.1
20260505150440 76 271 5.0 7.0 0.00 0.00 0.00 39 1016.9
20260505140410 74 264 7.0 10.0 0.00 0.00 0.00 43 1017.1
20260505124823 64 12 0.0 0.0 0.00 0.00 0.00 70 1017.3
20260505124320 62 185 2.0 2.0 0.00 0.00 0.00 71 1017.3
20260505123816 62 4 0.0 0.0 0.00 0.00 0.00 73 1017.5
20260505123313 61 20 1.0 1.0 0.00 0.00 0.00 75 1017.5
20260505122809 60 269 1.0 1.0 0.00 0.00 0.00 75 1017.4
20260505122307 59 328 0.0 0.0 0.00 0.00 0.00 78 1017.6
20260505121803 58 0 1.0 1.0 0.00 0.00 0.00 79 1017.5
20260505121300 57 308 0.0 0.0 0.00 0.00 0.00 81 1017.7
20260505120756 56 7 1.0 1.0 0.00 0.00 0.00 83 1017.6
20260505120252 55 351 0.0 0.0 0.00 0.00 0.00 84 1017.9
20260505115751 55 34 1.0 1.0 0.00 0.00 0.00 85 1018.0
20260505115249 55 351 0.0 0.0 0.00 0.00 0.00 86 1017.6
20260505114746 55 11 0.0 0.0 0.00 0.00 0.00 86 1018.1
20260505114242 54 346 0.0 0.0 0.00 0.00 0.00 86 1017.9
20260505113739 53 348 0.0 0.0 0.00 0.00 0.00 90 1017.9
20260505113235 52 343 0.0 0.0 0.00 0.00 0.00 91 1018.2
20260505112731 52 345 0.0 0.0 0.00 0.00 0.00 94 1018.0
20260505112229 51 340 0.0 0.0 0.00 0.00 0.00 95 1018.0
20260505111729 50 187 1.0 2.0 0.00 0.00 0.00 96 1017.9
20260505111225 50 343 0.0 0.0 0.00 0.00 0.00 96 1018.0
20260505110721 50 338 0.0 0.0 0.00 0.00 0.00 96 1017.8
20260505110219 50 340 0.0 0.0 0.00 0.00 0.00 96 1017.8
20260505102154 49 338 0.0 0.0 0.00 0.00 0.00 96 1017.2
20260505101653 49 344 0.0 0.0 0.00 0.00 0.00 96 1017.2
20260505101149 49 342 0.0 0.0 0.00 0.00 0.00 96 1017.5
20260505100645 49 328 0.0 0.0 0.00 0.00 0.00 96 1017.4
20260505100142 49 340 0.0 0.0 0.00 0.00 0.00 95 1017.0
20260505095638 49 346 0.0 0.0 0.00 0.00 0.00 95 1016.9
20260505095136 49 344 0.0 0.0 0.00 0.00 0.00 95 1017.1
20260505094631 49 341 0.0 0.0 0.00 0.00 0.00 95 1016.7
20260505094128 50 344 0.0 0.0 0.00 0.00 0.00 95 1017.0
20260505093624 50 333 0.0 0.0 0.00 0.00 0.00 94 1017.0
20260505093122 50 340 0.0 0.0 0.00 0.00 0.00 94 1017.1
20260505092619 50 334 0.0 0.0 0.00 0.00 0.00 94 1016.9
20260505092118 50 299 1.0 2.0 0.00 0.00 0.00 94 1017.0
20260505091613 50 315 1.0 1.0 0.00 0.00 0.00 94 1017.1
20260505091112 50 333 0.0 0.0 0.00 0.00 0.00 93 1016.9
20260505090610 50 340 0.0 0.0 0.00 0.00 0.00 93 1016.9
20260505090108 50 345 0.0 1.0 0.00 0.00 0.00 93 1016.7
20260505085605 50 338 0.0 0.0 0.00 0.00 0.00 92 1016.6
20260505085103 51 323 0.0 1.0 0.00 0.00 0.00 92 1016.5
20260505084600 51 315 1.0 1.0 0.00 0.00 0.00 91 1016.3
20260505084058 51 324 1.0 1.0 0.00 0.00 0.00 91 1016.4
20260505083555 51 352 1.0 1.0 0.00 0.00 0.00 91 1016.2
20260505083052 51 352 1.0 1.0 0.00 0.00 0.00 91 1016.3
20260505082548 51 354 0.0 0.0 0.00 0.00 0.00 91 1016.5
20260505082045 51 3 0.0 0.0 0.00 0.00 0.00 90 1016.5
20260505081541 51 349 0.0 0.0 0.00 0.00 0.00 89 1016.2
20260505081038 51 336 0.0 0.0 0.00 0.00 0.00 89 1016.6
20260505080534 51 327 0.0 0.0 0.00 0.00 0.00 90 1016.6
20260505080031 51 333 0.0 0.0 0.00 0.00 0.00 90 1016.7
20260505075527 51 336 0.0 0.0 0.00 0.00 0.00 90 1016.6
20260505075024 51 334 0.0 0.0 0.00 0.00 0.00 90 1016.7
20260505074521 51 3 0.0 0.0 0.00 0.00 0.00 90 1016.6
20260505074019 51 326 0.0 0.0 0.00 0.00 0.00 90 1016.5
20260505073516 51 349 0.0 0.0 0.00 0.00 0.00 89 1016.5
20260505073014 51 342 0.0 0.0 0.00 0.00 0.00 88 1016.7
20260505072509 52 340 0.0 0.0 0.00 0.00 0.00 88 1016.4
20260505072006 51 341 0.0 0.0 0.00 0.00 0.00 88 1016.2
20260505071501 52 341 0.0 0.0 0.00 0.00 0.00 88 1016.3
20260505071000 52 340 0.0 0.0 0.00 0.00 0.00 87 1016.0
20260505070456 52 339 0.0 0.0 0.00 0.00 0.00 86 1015.9
20260505065952 53 340 0.0 0.0 0.00 0.00 0.00 85 1015.9
20260505065448 52 334 0.0 0.0 0.00 0.00 0.00 86 1016.2
20260505064945 52 331 0.0 0.0 0.00 0.00 0.00 86 1016.0
20260505064442 53 331 0.0 0.0 0.00 0.00 0.00 85 1015.9
20260505063941 53 336 0.0 0.0 0.00 0.00 0.00 85 1016.2
20260505063437 53 336 0.0 0.0 0.00 0.00 0.00 85 1016.3
20260505062933 53 332 0.0 0.0 0.00 0.00 0.00 85 1016.2
20260505062431 53 332 0.0 0.0 0.00 0.00 0.00 84 1016.3
20260505061927 53 345 0.0 0.0 0.00 0.00 0.00 83 1016.3
20260505061426 53 330 0.0 0.0 0.00 0.00 0.00 83 1015.9
20260505060923 54 330 0.0 0.0 0.00 0.00 0.00 82 1016.3
20260505060420 54 330 0.0 0.0 0.00 0.00 0.00 82 1015.9
20260505055916 54 330 0.0 0.0 0.00 0.00 0.00 82 1016.0
20260505055412 54 330 0.0 0.0 0.00 0.00 0.00 82 1016.4
20260505054909 54 330 0.0 0.0 0.00 0.00 0.00 82 1016.4
20260505054406 55 330 0.0 0.0 0.00 0.00 0.00 81 1016.4
20260505053904 55 330 0.0 0.0 0.00 0.00 0.00 80 1016.5
20260505053401 56 330 0.0 0.0 0.00 0.00 0.00 78 1016.4
20260505052858 56 330 0.0 0.0 0.00 0.00 0.00 78 1016.4
20260505052355 55 321 1.0 1.0 0.00 0.00 0.00 79 1016.5
20260505051852 55 330 0.0 0.0 0.00 0.00 0.00 80 1016.3
20260505051349 55 330 0.0 0.0 0.00 0.00 0.00 80 1016.4
20260505050847 56 330 0.0 0.0 0.00 0.00 0.00 79 1016.4
20260505050346 57 330 0.0 0.0 0.00 0.00 0.00 78 1016.5
20260505041313 59 325 1.0 2.0 0.00 0.00 0.00 71 1016.3
20260505040810 60 308 1.0 1.0 0.00 0.00 0.00 71 1016.3
20260505040307 60 334 0.0 0.0 0.00 0.00 0.00 70 1016.3
20260505035804 60 330 1.0 1.0 0.00 0.00 0.00 69 1016.3
20260505035259 60 332 0.0 1.0 0.00 0.00 0.00 69 1016.3
20260505034757 59 342 0.0 0.0 0.00 0.00 0.00 71 1016.5
20260505034254 59 339 0.0 0.0 0.00 0.00 0.00 73 1016.3
20260505033750 62 343 0.0 0.0 0.00 0.00 0.00 68 1016.3
20260505033248 64 288 3.0 5.0 0.00 0.00 0.00 60 1016.0
20260505032746 63 332 2.0 2.0 0.00 0.00 0.00 61 1016.3
20260505032241 63 340 0.0 0.0 0.00 0.00 0.00 65 1016.3
20260505031739 62 319 1.0 2.0 0.00 0.00 0.00 68 1016.2
20260505031235 61 343 0.0 0.0 0.00 0.00 0.00 66 1016.3
20260505030732 61 330 0.0 0.0 0.00 0.00 0.00 69 1016.3
20260505030228 61 324 1.0 1.0 0.00 0.00 0.00 67 1016.4
20260505025724 60 325 1.0 2.0 0.00 0.00 0.00 68 1016.2
20260505025223 60 324 2.0 2.0 0.00 0.00 0.00 71 1016.4
20260505024720 60 327 0.0 0.0 0.00 0.00 0.00 71 1016.3
20260505024217 59 331 0.0 1.0 0.00 0.00 0.00 73 1016.4
20260505023715 60 318 0.0 1.0 0.00 0.00 0.00 72 1016.4
20260505023212 60 336 0.0 0.0 0.00 0.00 0.00 71 1016.5
20260505022709 60 331 0.0 1.0 0.00 0.00 0.00 71 1016.7
20260505022206 59 329 0.0 1.0 0.00 0.00 0.00 72 1016.7
20260505021703 59 325 0.0 0.0 0.00 0.00 0.00 72 1016.6
20260505021200 59 326 0.0 0.0 0.00 0.00 0.00 72 1016.4
20260505020655 59 315 1.0 1.0 0.00 0.00 0.00 72 1016.3
20260505020151 59 324 0.0 0.0 0.00 0.00 0.00 72 1016.6
20260505015649 60 320 0.0 0.0 0.00 0.00 0.00 71 1016.4
20260505015145 60 328 0.0 0.0 0.00 0.00 0.00 70 1016.4
20260505014642 60 295 1.0 1.0 0.00 0.00 0.00 70 1016.5
20260505014139 60 332 0.0 0.0 0.00 0.00 0.00 70 1016.3
20260505013636 61 339 0.0 1.0 0.00 0.00 0.00 69 1016.4
20260505013133 61 331 1.0 1.0 0.00 0.00 0.00 69 1016.4
20260505012632 61 338 0.0 0.0 0.00 0.00 0.00 68 1016.3
20260505012128 62 332 0.0 0.0 0.00 0.00 0.00 66 1016.3
20260505011624 62 324 0.0 0.0 0.00 0.00 0.00 66 1015.9
20260505011121 63 325 0.0 0.0 0.00 0.00 0.00 64 1015.8
20260505010617 63 325 0.0 0.0 0.00 0.00 0.00 64 1016.0
20260505010114 64 327 1.0 1.0 0.00 0.00 0.00 62 1015.8
20260505005610 64 331 2.0 2.0 0.00 0.00 0.00 61 1015.6
20260505005107 65 337 0.0 1.0 0.00 0.00 0.00 60 1015.5
20260505004604 65 334 1.0 2.0 0.00 0.00 0.00 60 1015.7
20260505004101 65 337 0.0 1.0 0.00 0.00 0.00 59 1015.6
20260505003558 66 331 1.0 1.0 0.00 0.00 0.00 57 1015.5
20260505003055 68 322 2.0 2.0 0.00 0.00 0.00 53 1015.7
20260505002550 68 322 2.0 2.0 0.00 0.00 0.00 54 1015.7
20260505002049 70 311 3.0 3.0 0.00 0.00 0.00 49 1015.6
20260505001546 70 328 1.0 2.0 0.00 0.00 0.00 47 1015.4
20260505001043 71 318 2.0 2.0 0.00 0.00 0.00 46 1015.5
20260505000541 71 340 1.0 1.0 0.00 0.00 0.00 46 1015.5
20260505000038 70 240 3.0 5.0 0.00 0.00 0.00 46 1015.5
20260504235535 71 348 0.0 1.0 0.00 0.00 0.00 47 1015.5
20260504235031 71 266 2.0 2.0 0.00 0.00 0.00 45 1015.4
20260504234528 72 238 3.0 3.0 0.00 0.00 0.00 44 1015.5
20260504234025 72 253 3.0 5.0 0.00 0.00 0.00 44 1015.3
20260504233520 72 291 2.0 5.0 0.00 0.00 0.00 46 1015.3
20260504233018 72 323 0.0 1.0 0.00 0.00 0.00 44 1015.4
20260504232515 72 251 2.0 2.0 0.00 0.00 0.00 45 1015.4
20260504232012 73 292 2.0 2.0 0.00 0.00 0.00 44 1015.4
20260504231509 73 301 2.0 2.0 0.00 0.00 0.00 42 1015.4
20260504231005 73 340 4.0 6.0 0.00 0.00 0.00 42 1015.5